Weather History for Mitchell, SD

Change the Weather History Date:

Monday, May 26, 2014

  Actual Average Record
Temperature  
Mean Temperature 73 °F 62 °F  
Max Temperature 84 °F 74 °F 102 °F (1967)
Min Temperature 61 °F 51 °F 32 °F (1971)
Degree Days  
Heating Degree Days 0 4  
Month to date heating degree days 242 191  
Since 1 July heating degree days 7765 7191  
Cooling Degree Days 8 2  
Month to date cooling degree days 33 26  
Year to date cooling degree days 33 28  
Growing Degree Days 22 (Base 50)    
Moisture  
Dew Point 63 °F    
Average Humidity 70    
Maximum Humidity 93    
Minimum Humidity 47    
Precipitation  
Precipitation 0.61 in 0.14 in 2.28 in (1908)
Month to date precipitation 1.62 2.18  
Year to date precipitation 3.69 5.98  
Snow  
Snow 0.00 in - 0.00 in ()
Month to date snowfall 0.0  
Since 1 July snowfall 30.8  
Snow Depth 0.00 in    
Sea Level Pressure  
Sea Level Pressure 29.88 in    
Wind  
Wind Speed 8 mph (SE)    
Max Wind Speed 30 mph    
Max Gust Speed 42 mph    
Visibility 9 miles    
Events Fog , Rain , Thunderstorm    
T = Trace of Precipitation, MM = Missing Value Source: NWS Daily Summary

Daily Weather History Graph

Daily Weather History Graph

Search for Another Location

Airport:

Trip Planner

Search our weather history database for the weather conditions in past years. The results will help you decide how hot, cold, wet, or windy it might be!

Date:

Astronomy

May. 26, 2014 Rise Set
Actual Time 5:56 AM CDT 9:02 PM CDT
Civil Twilight 5:22 AM CDT 9:36 PM CDT
Nautical Twilight 4:38 AM CDT 10:21 PM CDT
Astronomical Twilight 3:45 AM CDT 11:14 PM CDT
Moon 4:44 AM CDT (5/26) 7:02 PM CDT (5/26)
Length of Visible Light 16h 14m
Length of Day
15h 05m
Waning Crescent, 5% of the Moon is Illuminated
May 26
Waning Crescent
May 28
New
Jun 5
First Quarter
Jun 12
Full
Jun 19
Last Quarter

Hourly Weather History & Observations

Time (CDT) Temp. Heat Index Dew Point Humidity Pressure Visibility Wind Dir Wind Speed Gust Speed Precip Events Conditions
12:53 AM 70.0 °F - 63.0 °F 78% 29.87 in 10.0 mi South 6.9 mph - N/A   Clear
1:53 AM 70.0 °F - 62.1 °F 76% 29.87 in 10.0 mi WSW 6.9 mph - N/A Thunderstorm Mostly Cloudy
2:18 AM 71.1 °F - 60.1 °F 68% 29.88 in 10.0 mi SW 11.5 mph - N/A   Scattered Clouds
2:28 AM 71.1 °F - 61.0 °F 70% 29.89 in 10.0 mi SW 8.1 mph - N/A Thunderstorm Partly Cloudy
2:43 AM 69.1 °F - 62.1 °F 78% 29.88 in 10.0 mi South 3.5 mph - 0.00 in Rain Light Rain
2:53 AM 69.1 °F - 62.1 °F 78% 29.87 in 10.0 mi SE 3.5 mph - 0.00 in   Scattered Clouds
4:53 AM 68.0 °F - 62.1 °F 81% 29.86 in 10.0 mi South 8.1 mph - N/A   Scattered Clouds
5:53 AM 64.9 °F - 61.0 °F 87% 29.88 in 10.0 mi NW 3.5 mph - N/A   Partly Cloudy
7:53 AM 66.9 °F - 63.0 °F 87% 29.88 in 10.0 mi SSE 5.8 mph - N/A   Overcast
8:53 AM 68.0 °F - 63.0 °F 84% 29.90 in 10.0 mi South 4.6 mph - N/A   Mostly Cloudy
9:53 AM 68.0 °F - 64.0 °F 87% 29.91 in 10.0 mi SSE 5.8 mph - N/A   Overcast
10:53 AM 71.1 °F - 64.9 °F 81% 29.91 in 10.0 mi South 6.9 mph - N/A   Clear
11:53 AM 75.0 °F - 64.9 °F 71% 29.90 in 10.0 mi SE 6.9 mph - N/A   Clear
12:53 PM 75.0 °F - 64.9 °F 71% 29.90 in 10.0 mi SE 12.7 mph - N/A   Clear
1:53 PM 75.9 °F - 64.9 °F 69% 29.89 in 10.0 mi SE 8.1 mph - N/A   Clear
2:53 PM 77.0 °F - 64.0 °F 64% 29.88 in 10.0 mi SE 10.4 mph - N/A   Clear
3:53 PM 80.1 °F 81.7 °F 64.0 °F 58% 29.86 in 10.0 mi SE 10.4 mph - N/A   Scattered Clouds
5:53 PM 82.9 °F 84.4 °F 64.0 °F 53% 29.84 in 10.0 mi ENE 6.9 mph - N/A   Clear
6:53 PM 82.0 °F 82.4 °F 60.1 °F 47% 29.84 in 10.0 mi ENE 10.4 mph - N/A   Clear
7:12 PM 80.1 °F 80.9 °F 60.1 °F 50% 29.86 in 10.0 mi ENE 15.0 mph 21.9 mph N/A Thunderstorm Mostly Cloudy
7:24 PM 77.0 °F - 64.9 °F 66% 29.87 in 10.0 mi ENE 17.3 mph - N/A Thunderstorm Thunderstorm
7:35 PM 72.0 °F - 64.9 °F 78% 29.91 in 1.0 mi South 29.9 mph 42.6 mph 0.16 in Rain , Thunderstorm Light Thunderstorms and Rain
7:40 PM 64.9 °F - 63.0 °F 93% 29.89 in 0.2 mi ESE 10.4 mph 42.6 mph 0.34 in Fog , Rain , Thunderstorm Heavy Thunderstorms and Rain
7:46 PM 64.9 °F - 64.0 °F 97% 29.89 in 0.5 mi East 9.2 mph - 0.57 in Fog , Rain , Thunderstorm Heavy Thunderstorms and Rain
7:53 PM 62.1 °F - 62.1 °F 100% 29.88 in 1.0 mi ESE 9.2 mph - 0.60 in Rain , Thunderstorm Light Thunderstorms and Rain
7:58 PM 62.1 °F - 62.1 °F 100% 29.89 in 3.0 mi ESE 8.1 mph - 0.00 in Rain , Thunderstorm Light Rain
8:08 PM 64.9 °F - 64.9 °F 100% 29.89 in 10.0 mi ESE 9.2 mph - 0.01 in Rain , Thunderstorm Light Thunderstorms and Rain
8:53 PM 68.0 °F - 64.9 °F 90% 29.88 in 10.0 mi ESE 9.2 mph - 0.01 in   Clear
9:53 PM 68.0 °F - 63.0 °F 84% 29.89 in 10.0 mi ESE 8.1 mph - N/A   Clear
10:53 PM 68.0 °F - 64.0 °F 87% 29.89 in 10.0 mi SE 10.4 mph - N/A   Clear
11:53 PM 66.9 °F - 64.0 °F 90% 29.89 in 10.0 mi SE 8.1 mph - N/A   Clear